To NAV CANADA Home Page Login to a new session Search on AWWS site Disclaimer Vers la page française équivalente Tips FAQ What's new on the site To the Forecasts and Observations / NOTAM section To "File a Flight Plan" website Publications and other links Update of the User's profile FIC Telephone Numbers My Weather Data Folder Route Weather Data Regional Weather Data Local Weather Data To the Forecasts and Observations / NOTAM section
Request Generated 01/17/2022 at 09:59:39 UTC . Weather information available at that time is displayed.

METAR/TAF

PAULATUK (NORA ALIQATCHIALUK RUBEN)/NT    (show WxCam)

LWIS CYPC 170900Z AUTO 00000KT M35/M38 A3041=
LWIS CYPC 170800Z AUTO 16002KT M34/M38 A3041=
LWIS CYPC 170700Z AUTO 00000KT M34/M38 A3041=

*** REMARK        : Forecast period has ended; this was the last TAF issued
*** REMARQUE : La période de prévision est échue; ceci était le dernier TAF qui a été émis
TAF CYPC 161540Z 1616/1619 VRB03KT P6SM SKC
RMK NXT FCST BY 171600Z
Your time UTC time
Weather data provided by Environment Canada and NAV CANADA